Flag for Canada Weather past 2 weeks in Glace Bay, Nova Scotia, Canada

Now
68 °F

Partly sunny.


Feels Like: 68 °F
Forecast: 51 / 60 °F
Wind: 9 mph from Southwest

Location: Sydney

Current Time: May 25, 2015 at 9:03:45 PM

Latest Report: May 25, 2015 at 8:00 PM


Visibility: 15 mi

Pressure: 30.08 "Hg

Humidity: 43%

Dew point: 45 °F

Location of Glace BayLocation

Historic Weather in Glace Bay — Graph

°F

Glace Bay temperature yesterday

Maximum temperature yesterday: 61 °F (at 12:00 PM)
Minimum temperature yesterday: 39 °F (at 4:00 AM)
Average temperature yesterday: 50 °F

Past Weeks' High & Low Weather Summary

 TemperatureHumidityPressure
High79 °F (May 25, 2:00 PM)100% (May 11, 2:00 AM)30.39 "Hg (May 11, 2:00 AM)
Low32 °F (May 14, 2:00 AM)21% (May 15, 4:00 PM)29.41 "Hg (May 13, 6:52 AM)
Average49 °F68%29.98 "Hg
* Reported May 10 8:00 PM — May 25 8:00 PM, Glace Bay, Weather by CustomWeather, © 2015

Note: Actual official high and low records may vary slightly from our data, if they occured in-between our weather recording intervals... More about our weather records

Advertising

Glace Bay weather history for previous 24 hours

 ConditionsComfort  
Time TempWeatherWind HumidityBarometerVisibility
8:00 PM
Mon, May 25
68 °FPartly sunny.9 mph43%30.08 "Hg15 mi
7:00 PM72 °FPartly sunny.13 mph38%30.07 "Hg15 mi
6:00 PM75 °FPartly sunny.13 mph34%30.06 "Hg15 mi
5:00 PM77 °FPassing clouds.14 mph39%30.05 "Hg15 mi
4:00 PM77 °FScattered clouds.15 mph34%30.06 "Hg15 mi
3:00 PM73 °FSprinkles. Partly sunny.13 mph41%30.08 "Hg15 mi
2:00 PM79 °FBroken clouds.21 mph32%30.08 "Hg15 mi
1:00 PM75 °FScattered clouds.18 mph34%30.09 "Hg15 mi
12:00 PM75 °FScattered clouds.20 mph31%30.10 "Hg15 mi
11:00 AM73 °FPassing clouds.15 mph36%30.10 "Hg15 mi
10:00 AM70 °FPassing clouds.10 mph43%30.10 "Hg15 mi
9:00 AM64 °FScattered clouds.9 mph52%30.11 "Hg15 mi
8:00 AM59 °FScattered clouds.6 mph55%30.11 "Hg15 mi
7:00 AM52 °FPartly sunny.2 mph72%30.10 "Hg15 mi
6:00 AM46 °FPassing clouds.13 mph82%30.08 "Hg15 mi
5:00 AM45 °FPassing clouds.13 mph87%30.07 "Hg15 mi
4:00 AM43 °FPassing clouds.12 mph87%30.06 "Hg15 mi
3:00 AM45 °FOvercast.10 mph87%30.06 "Hg15 mi
2:00 AM45 °FPassing clouds.9 mph87%30.06 "Hg15 mi
1:00 AM45 °FPassing clouds.10 mph87%30.06 "Hg15 mi
12:00 AM46 °FPassing clouds.12 mph82%30.05 "Hg15 mi
11:00 PM
Sun, May 24
46 °FPassing clouds.9 mph82%30.06 "Hg15 mi
10:00 PM48 °FPassing clouds.13 mph76%30.06 "Hg15 mi
9:00 PM50 °FPartly sunny.13 mph76%30.04 "Hg15 mi
Weather by CustomWeather, © 2015

See weather overviewHow to use our weather pages